[[{"header":{"parameterUnit":"m.s-1","parameterCategory":1,"la1":30.2992,"la2":30.254,"lo1":-89.0895,"lo2":-89.0443,"dy":0.0025,"dx":0.0025,"nx":19,"ny":19,"refTime":"2026-04-17T09:00:00:Z","depth":0,"parameterNumber":2,"parameterNumberName":"U-component_of_WINDS"},"data":[0,0,0,0.2894,0.2894,0.2904,0.2904,0.291,0.291,0,0,0,0,0,0,0,0,0,0,0,0.2887,0.2887,0.2894,0.2894,0.2904,0.2904,0.291,0.291,0,0,0,0,0,0,0,0,0,0,0,0.2887,0.2887,0.2887,0.2894,0.2904,0.2904,0.291,0.2905,0,0,0,0,0,0,0,0,0,0,0.2897,0.2886,0.2887,0.2887,0.2894,0.2904,0.2904,0.2905,0.2905,0.2903,0,0.29,0,0.2905,0.291,0.291,0,0,0,0.2897,0.2886,0.2892,0.2887,0.2895,0.2904,0.2901,0.2905,0.2906,0.2903,0.29,0.29,0.2905,0.291,0.291,0.2886,0.2886,0,0,0.2897,0.2887,0.2892,0.2892,0.289,0.29,0.2901,0.2906,0.2901,0.29,0.29,0.2905,0.291,0.291,0.2887,0.2886,0,0,0,0.2893,0.2886,0.2893,0.2892,0.2894,0.29,0.2901,0.2901,0.2904,0.29,0.2905,0.291,0.291,0.2887,0.2887,0.2864,0,0,0,0.2893,0.2884,0.2892,0.2886,0.2894,0.2897,0.2896,0.2903,0.2904,0.2905,0.291,0.291,0.2887,0.2887,0.2866,0.2855,0,0,0,0.2888,0.2884,0.2884,0.2886,0.2889,0.2898,0.2901,0.2904,0.2907,0.291,0.291,0.2887,0.2887,0.2867,0.2857,0.2846,0,0,0,0.288,0.2863,0.2883,0.2867,0.2889,0.2884,0.2901,0.2898,0.2898,0.291,0.2887,0.2887,0.2867,0.2858,0.2847,0.2835,0.2829,0,0,0.2853,0.2859,0.2851,0.2869,0.2858,0.2883,0.2869,0.2878,0.2888,0.2886,0.2886,0.2865,0.2857,0.2846,0.2799,0.2794,0,0,0,0.2839,0.2832,0.2832,0.2832,0.2839,0.2845,0.2858,0.2862,0.2861,0.2885,0.2859,0.2854,0.2848,0.2843,0.2839,0.2834,0.2884,0.2884,0.2884,0.2786,0.28,0.2787,0.2802,0.2802,0.2816,0.2818,0.2825,0.2839,0.2832,0.2832,0.2802,0.2795,0.2792,0.2787,0.2827,0.2827,0.2827,0.2827,0.2748,0.2741,0.2761,0.2755,0.277,0.2765,0.2779,0.2789,0.2787,0.2803,0.2798,0.2814,0.2786,0.2782,0.2825,0.2825,0.2825,0.2826,0.2826,0.2714,0.2713,0.2719,0.2721,0.2722,0.2739,0.2736,0.275,0.2763,0.2759,0.276,0.276,0.2762,0.2758,0.2758,0.2758,0.2758,0.2758,0.2758,0.2676,0.2683,0.2679,0.2688,0.269,0.2695,0.2711,0.2714,0.2721,0.2731,0.2731,0.2745,0.2781,0.2789,0.2756,0.2757,0.2757,0.2757,0.2757,0.263,0.2644,0.2638,0.264,0.2652,0.2652,0.2671,0.2676,0.268,0.2679,0.2695,0.2719,0.2726,0.2729,0.2736,0.2692,0.2692,0.2692,0.2692,0.2601,0.2607,0.2605,0.2609,0.2614,0.2631,0.2624,0.2637,0.2652,0.2656,0.2665,0.2676,0.2679,0.2684,0.2689,0.2695,0.2641,0.2641,0.2641,0.2574,0.2581,0.2572,0.2588,0.2599,0.2608,0.2602,0.2606,0.2626,0.264,0.266,0.2662,0.2679,0.2684,0.2696,0.2703,0.2715,0,0]},{"header":{"parameterUnit":"m.s-1","parameterCategory":1,"la1":30.2992,"la2":30.254,"lo1":-89.0895,"lo2":-89.0443,"dy":0.0025,"dx":0.0025,"nx":19,"ny":19,"refTime":"2026-04-17T09:00:00:Z","depth":0,"parameterNumber":3,"parameterNumberName":"V-component_of_WINDS"},"data":[0,0,0,3.3846,3.3847,3.3917,3.3917,3.3984,3.3984,0,0,0,0,0,0,0,0,0,0,0,3.3814,3.3814,3.3846,3.3848,3.3917,3.3917,3.3984,3.3984,0,0,0,0,0,0,0,0,0,0,0,3.3814,3.3814,3.3814,3.3848,3.3917,3.3917,3.3984,3.3939,0,0,0,0,0,0,0,0,0,0,3.3875,3.3834,3.3814,3.3814,3.3848,3.3917,3.3917,3.3937,3.3942,3.3944,0,3.3943,0,3.3965,3.3988,3.3988,0,0,0,3.3856,3.383,3.386,3.3814,3.3849,3.3917,3.3888,3.394,3.3945,3.3949,3.3944,3.3947,3.3966,3.3988,3.3988,3.3973,3.3972,0,0,3.3852,3.3819,3.3856,3.3862,3.3852,3.3886,3.389,3.3943,3.3935,3.3945,3.3949,3.3967,3.3988,3.3989,3.3973,3.3973,0,0,0,3.3835,3.3816,3.3845,3.3859,3.3873,3.3887,3.3892,3.3933,3.3945,3.395,3.3968,3.3988,3.3989,3.3974,3.3973,3.3918,0,0,0,3.3834,3.3807,3.3843,3.3823,3.3872,3.3904,3.388,3.3941,3.3948,3.3967,3.3988,3.399,3.3975,3.3974,3.392,3.3896,0,0,0,3.3813,3.3804,3.381,3.3822,3.3851,3.3904,3.392,3.3944,3.3959,3.3988,3.399,3.3975,3.3974,3.3923,3.39,3.3882,0,0,0,3.3781,3.376,3.3809,3.3791,3.385,3.387,3.392,3.3936,3.3955,3.3989,3.3974,3.3973,3.3924,3.3903,3.3884,3.386,3.3847,0,0,3.3735,3.3753,3.3745,3.3791,3.3794,3.3862,3.3857,3.3904,3.3936,3.3958,3.3959,3.3919,3.3901,3.3882,3.3788,3.3777,0,0,0,3.3719,3.3713,3.3721,3.3738,3.3775,3.3804,3.3856,3.3873,3.3894,3.3942,3.391,3.3899,3.389,3.388,3.3871,3.3864,3.3967,3.3968,3.3968,3.3606,3.365,3.364,3.3691,3.3707,3.3761,3.3777,3.381,3.3849,3.384,3.3847,3.3784,3.3771,3.3765,3.3757,3.3838,3.3838,3.3838,3.3838,3.3542,3.3539,3.3593,3.3602,3.3647,3.3655,3.3706,3.3733,3.3746,3.3783,3.3777,3.3812,3.3752,3.3748,3.3834,3.3835,3.3835,3.3836,3.3836,3.3471,3.3478,3.35,3.3529,3.3546,3.3599,3.3609,3.3651,3.3689,3.3684,3.3694,3.3695,3.37,3.3686,3.3686,3.3686,3.3685,3.3685,3.3685,3.3388,3.3416,3.342,3.3457,3.3473,3.3499,3.3554,3.3571,3.3599,3.3629,3.3629,3.3667,3.3738,3.3754,3.3682,3.3682,3.3683,3.3683,3.3683,3.3305,3.333,3.3336,3.3352,3.3399,3.3413,3.3466,3.3496,3.3516,3.3519,3.356,3.3606,3.3627,3.3634,3.3647,3.3552,3.3552,3.3552,3.3552,3.3244,3.3259,3.3275,3.3298,3.3325,3.3374,3.3378,3.342,3.3467,3.3482,3.3502,3.3524,3.353,3.3547,3.3556,3.3569,3.3455,3.3455,3.3455,3.3195,3.3214,3.321,3.3258,3.3298,3.333,3.3335,3.3358,3.3418,3.3452,3.3494,3.3498,3.3534,3.3544,3.3577,3.3591,3.3616,0,0]}]]